This is the latest recevied weather packets stored in our database for station/object K5OBH. If no packets are shown the sender has not sent any weather packets the latest 10 day(s).
| Time | Temp. | Humidity | Pressure | Rain* | Wind** | Luminosity | Snow |
|---|---|---|---|---|---|---|---|
| 1777390839 | 16.11° C | 81% | 1012.5 hPa | 0 mm | - | 129 W/m² | - |
| 1777390537 | 16.11° C | 80% | 1012.5 hPa | 0 mm | - | 151 W/m² | - |
| 1777390233 | 16.11° C | 80% | 1012.8 hPa | 0 mm | - | 152 W/m² | - |
| 1777389930 | 16.11° C | 81% | 1012.6 hPa | 0 mm | - | 140 W/m² | - |
| 1777389627 | 16.11° C | 81% | 1012.5 hPa | 0 mm | - | 129 W/m² | - |
| 1777389323 | 16.11° C | 81% | 1012.6 hPa | 0 mm | - | 42 W/m² | - |
| 1777389021 | 16.11° C | 82% | 1012.4 hPa | 0 mm | - | 87 W/m² | - |
| 1777388718 | 16.11° C | 82% | 1012.4 hPa | 0 mm | - | 137 W/m² | - |
| 1777388415 | 16.11° C | 82% | 1012.5 hPa | 0 mm | - | 102 W/m² | - |
| 1777388114 | 16.11° C | 82% | 1012.1 hPa | 0 mm | - | 116 W/m² | - |
| 1777387810 | 16.11° C | 83% | 1012.3 hPa | 0 mm | - | 107 W/m² | - |
| 1777387507 | 16.11° C | 83% | 1012.3 hPa | 0 mm | - | 96 W/m² | - |
| 1777387203 | 16.11° C | 84% | 1012.8 hPa | 0 mm | - | 60 W/m² | - |
| 1777386898 | 16.11° C | 83% | 1012.5 hPa | 0 mm | - | 72 W/m² | - |
| 1777386595 | 16.11° C | 84% | 1012.8 hPa | 0 mm | - | 72 W/m² | - |
| 1777386292 | 15.56° C | 84% | 1012.9 hPa | 0 mm | - | 73 W/m² | - |
| 1777385989 | 16.11° C | 84% | 1012.9 hPa | 0 mm | - | 49 W/m² | - |
| 1777385685 | 16.11° C | 84% | 1013.2 hPa | 0 mm | - | 62 W/m² | - |
| 1777385383 | 16.11° C | 84% | 1013.3 hPa | 0 mm | - | 63 W/m² | - |
| 1777385079 | 16.11° C | 85% | 1013.2 hPa | 0 mm | - | 50 W/m² | - |
| 1777384776 | 16.11° C | 84% | 1013.4 hPa | 0 mm | - | 21 W/m² | - |
| 1777384472 | 16.11° C | 84% | 1012.8 hPa | 0 mm | - | 53 W/m² | - |
| 1777384167 | 16.11° C | 84% | 1012.6 hPa | 0 mm | - | 44 W/m² | - |
| 1777383863 | 16.11° C | 83% | 1012.5 hPa | 0 mm | - | 44 W/m² | - |
| 1777383560 | 16.11° C | 84% | 1012.2 hPa | 0 mm | - | 77 W/m² | - |
* Rain latest hour (hover to see other rain measurements)
** Current wind speed in m/s (hover to see current wind gust speed)